CDT,Max TemperatureF,Mean TemperatureF,Min TemperatureF,Max Dew PointF,MeanDew PointF,Min DewpointF,Max Humidity, Mean Humidity, Min Humidity, Max Sea Level PressureIn, Mean Sea Level PressureIn, Min Sea Level PressureIn, Max VisibilityMiles, Mean VisibilityMiles, Min VisibilityMiles, Max Wind SpeedMPH, Mean Wind SpeedMPH, Max Gust SpeedMPH,PrecipitationIn, CloudCover, Events, WindDirDegrees
2013-4-1,80,64,48,54,50,45,88,60,30,30.11,30.03,29.94,10,10,10,13,3,20,0.00,0,,128
2013-4-2,64,56,46,61,55,45,94,83,64,30.06,30.00,29.94,10,7,1,17,8,22,0.45,6,,24
2013-4-3,51,46,42,50,44,41,100,92,87,30.19,30.09,29.87,10,5,0,20,11,37,1.15,8,,348
2013-4-4,48,44,39,39,37,36,87,80,66,30.25,30.19,30.15,10,10,4,15,9,21,0.00,7,,334
2013-4-5,68,50,33,46,40,32,100,70,40,30.28,30.18,30.04,10,9,4,12,4,16,0.00,0,,162
2013-4-6,78,64,51,55,48,45,77,59,36,30.04,29.93,29.84,10,10,10,20,11,30,0.00,0,,178
2013-4-7,75,66,57,61,58,54,88,75,61,29.91,29.84,29.75,10,10,10,20,12,29,0.00,3,,168
2013-4-8,73,68,64,63,60,59,83,77,65,29.78,29.73,29.67,10,10,5,20,15,26,0.00,6,,175
2013-4-9,78,73,68,64,62,55,83,72,54,29.75,29.68,29.63,10,9,7,22,16,34,0.00,4,,160
2013-4-10,57,45,33,45,35,32,93,81,63,30.02,29.93,29.76,10,9,2,26,16,33,0.12,6,,333
2013-4-11,62,50,37,39,33,28,81,56,32,30.01,29.93,29.84,10,10,10,13,5,16,0.00,0,,330
2013-4-12,77,60,42,46,39,34,81,52,21,30.01,29.93,29.88,10,10,10,10,3,22,0.00,0,,157
2013-4-13,77,64,51,48,42,36,76,47,24,29.99,29.91,29.81,10,10,10,16,8,23,0.00,1,,157
2013-4-14,89,70,51,61,49,32,88,55,13,29.82,29.67,29.56,10,10,10,21,9,29,0.00,1,,186
2013-4-15,87,74,62,64,60,55,94,63,35,29.79,29.72,29.64,10,9,5,16,9,23,0.00,0,,171
2013-4-16,86,76,66,64,62,61,83,66,45,29.92,29.85,29.78,10,7,5,17,12,25,0.00,0,,160
2013-4-17,82,76,69,68,65,63,94,72,51,29.90,29.78,29.64,10,8,5,22,16,36,0.00,3,,160
2013-4-18,75,58,42,68,41,32,93,66,38,30.19,29.93,29.61,10,9,5,29,19,40,0.19,4,,332
2013-4-19,62,48,35,34,27,21,81,47,20,30.34,30.24,30.17,10,10,10,16,7,23,0.00,0,,332
2013-4-20,69,54,39,34,30,25,75,43,20,30.21,30.13,30.00,10,10,10,18,8,26,0.00,0,,159
2013-4-21,71,58,46,50,47,34,87,64,46,30.20,30.12,30.07,10,10,10,14,10,22,0.00,2,,147
2013-4-22,80,66,53,55,52,48,94,63,37,30.12,29.99,29.84,10,10,7,18,9,26,0.00,0,,169
2013-4-23,68,54,39,59,43,34,88,74,64,30.23,30.02,29.81,10,10,7,18,13,26,0.00,6,,330
2013-4-24,60,46,33,36,31,27,87,56,31,30.35,30.28,30.23,10,10,10,20,12,29,0.00,3,,13
2013-4-25,71,60,50,45,37,32,59,43,25,30.37,30.28,30.16,10,10,10,14,6,21,0.00,4,,114
2013-4-26,77,68,59,63,55,43,88,68,52,30.16,30.09,30.00,10,10,10,23,10,30,0.00,4,,170
2013-4-27,75,67,59,64,55,48,94,67,41,30.17,30.09,30.02,10,10,7,13,7,20,0.00,1,,359
2013-4-28,86,68,51,61,54,45,94,65,23,30.09,29.98,29.87,10,9,1,13,3,16,0.00,0,,160
2013-4-29,84,72,60,63,57,50,94,61,30,29.94,29.89,29.81,10,10,5,16,8,23,0.00,1,,169
2013-4-30,82,70,57,63,57,55,94,66,39,29.87,29.81,29.75,10,9,0,14,8,21,0.00,1,,160